Time,TemperatureF,DewpointF,PressureIn,WindDirection,WindDirectionDegrees,WindSpeedMPH,WindSpeedGustMPH,Humidity,HourlyPrecipIn,Conditions,Clouds,dailyrainin,SolarRadiationWatts/m^2,SoftwareType,DateUTC
2013-02-17 00:01:00,29.0,14.0,-100.00,SSE,157,4.0,7.0,52,0.00,,,0.00,0.000000,,2013-02-17 08:01:00,
2013-02-17 00:11:00,29.0,14.0,-100.00,SSE,157,4.0,7.0,52,0.00,,,0.00,0.000000,,2013-02-17 08:11:00,
2013-02-17 00:21:00,29.0,14.0,-100.00,SSE,157,4.0,7.0,52,0.00,,,0.00,0.000000,,2013-02-17 08:21:00,
2013-02-17 00:31:00,29.0,14.0,-100.00,SSE,157,4.0,7.0,52,0.00,,,0.00,0.000000,,2013-02-17 08:31:00,
2013-02-17 08:02:00,23.0,-99.9,-100.00,North,-999,-999.0,-999.0,-999,-99.99,,,-99.99,,,2013-02-17 16:02:00,
2013-02-17 08:12:00,23.0,-99.9,-100.00,North,-999,-999.0,-999.0,-999,-99.99,,,-99.99,,,2013-02-17 16:12:00,
2013-02-17 08:22:00,23.0,-99.9,-100.00,North,-999,-999.0,-999.0,-999,-99.99,,,-99.99,,,2013-02-17 16:22:00,
2013-02-17 08:52:00,32.0,17.0,-100.00,SSE,147,2.0,-999.0,54,-99.99,,,0.00,,,2013-02-17 16:52:00,
2013-02-17 09:02:00,32.0,17.0,-100.00,SSE,147,2.0,-999.0,54,-99.99,,,0.00,,,2013-02-17 17:02:00,
2013-02-17 09:11:00,32.0,17.0,-100.00,SSE,147,2.0,-999.0,54,-99.99,,,0.00,,,2013-02-17 17:11:00,
2013-02-17 09:21:00,32.0,17.0,-100.00,SSE,147,2.0,-999.0,54,-99.99,,,0.00,,,2013-02-17 17:21:00,
2013-02-17 09:31:00,32.0,17.0,-100.00,SSE,147,2.0,-999.0,54,-99.99,,,0.00,,,2013-02-17 17:31:00,
2013-02-17 10:01:00,47.0,18.0,-100.00,SE,145,2.0,8.0,31,0.00,,,0.00,384.000000,,2013-02-17 18:01:00,
2013-02-17 11:01:00,51.0,16.0,-100.00,South,180,3.0,10.0,25,0.00,,,0.00,518.000000,,2013-02-17 19:01:00,
2013-02-17 12:01:00,53.0,16.0,-100.00,SW,220,3.0,11.0,23,-99.99,,,0.00,608.000000,,2013-02-17 20:01:00,
2013-02-17 13:01:00,54.0,15.0,-100.00,ENE,59,3.0,9.0,21,0.00,,,-99.99,640.000000,,2013-02-17 21:01:00,
2013-02-17 13:31:00,54.0,15.0,-100.00,ENE,59,3.0,9.0,21,0.00,,,-99.99,640.000000,,2013-02-17 21:31:00,
2013-02-17 14:01:00,49.0,9.0,-100.00,NNW,328,3.0,12.0,19,0.00,,,0.00,363.000000,,2013-02-17 22:01:00,
2013-02-17 14:12:00,49.0,9.0,-100.00,NNW,328,3.0,12.0,19,0.00,,,0.00,363.000000,,2013-02-17 22:12:00,
2013-02-17 14:21:00,49.0,9.0,-100.00,NNW,328,3.0,12.0,19,0.00,,,0.00,363.000000,,2013-02-17 22:21:00,
2013-02-17 14:32:00,49.0,9.0,-100.00,NNW,328,3.0,12.0,19,0.00,,,0.00,363.000000,,2013-02-17 22:32:00,
2013-02-17 15:02:00,50.0,12.0,-100.00,North,353,2.0,11.0,21,0.00,,,0.00,122.000000,,2013-02-17 23:02:00,
2013-02-17 15:11:00,50.0,12.0,-100.00,North,353,2.0,11.0,21,0.00,,,0.00,122.000000,,2013-02-17 23:11:00,
2013-02-17 15:21:00,50.0,12.0,-100.00,North,353,2.0,11.0,21,0.00,,,0.00,122.000000,,2013-02-17 23:21:00,
2013-02-17 15:31:00,50.0,12.0,-100.00,North,353,2.0,11.0,21,0.00,,,0.00,122.000000,,2013-02-17 23:31:00,
2013-02-17 16:01:00,50.0,14.0,-100.00,SW,233,2.0,10.0,23,0.00,,,0.00,298.000000,,2013-02-18 00:01:00,
2013-02-17 16:11:00,50.0,14.0,-100.00,SW,233,2.0,10.0,23,0.00,,,0.00,298.000000,,2013-02-18 00:11:00,
2013-02-17 16:22:00,50.0,14.0,-100.00,SW,233,2.0,10.0,23,0.00,,,0.00,298.000000,,2013-02-18 00:22:00,
2013-02-17 16:31:00,50.0,14.0,-100.00,SW,233,2.0,10.0,23,0.00,,,0.00,298.000000,,2013-02-18 00:31:00,
2013-02-17 17:01:00,49.0,19.0,-100.00,WSW,238,2.0,9.0,30,0.00,,,0.00,103.000000,,2013-02-18 01:01:00,
2013-02-17 17:11:00,49.0,19.0,-100.00,WSW,238,2.0,9.0,30,0.00,,,0.00,103.000000,,2013-02-18 01:11:00,
2013-02-17 17:21:00,49.0,19.0,-100.00,WSW,238,2.0,9.0,30,0.00,,,0.00,103.000000,,2013-02-18 01:21:00,
2013-02-17 17:31:00,49.0,19.0,-100.00,WSW,238,2.0,9.0,30,0.00,,,0.00,103.000000,,2013-02-18 01:31:00,
2013-02-17 18:01:00,41.0,21.0,-100.00,ESE,110,2.0,8.0,44,0.00,,,0.00,17.000000,,2013-02-18 02:01:00,
2013-02-17 18:11:00,41.0,21.0,-100.00,ESE,110,2.0,8.0,44,0.00,,,0.00,17.000000,,2013-02-18 02:11:00,
2013-02-17 18:21:00,41.0,21.0,-100.00,ESE,110,2.0,8.0,44,0.00,,,0.00,17.000000,,2013-02-18 02:21:00,
2013-02-17 18:31:00,41.0,21.0,-100.00,ESE,110,2.0,8.0,44,0.00,,,0.00,17.000000,,2013-02-18 02:31:00,
2013-02-17 19:01:00,36.0,21.0,-100.00,South,177,4.0,7.0,54,0.00,,,0.00,0.000000,,2013-02-18 03:01:00,
2013-02-17 19:11:00,36.0,21.0,-100.00,South,177,4.0,7.0,54,0.00,,,0.00,0.000000,,2013-02-18 03:11:00,
2013-02-17 19:21:00,36.0,21.0,-100.00,South,177,4.0,7.0,54,0.00,,,0.00,0.000000,,2013-02-18 03:21:00,
2013-02-17 19:31:00,36.0,21.0,-100.00,South,177,4.0,7.0,54,0.00,,,0.00,0.000000,,2013-02-18 03:31:00,
2013-02-17 20:01:00,35.0,21.0,-100.00,SSW,192,2.0,9.0,56,0.00,,,0.00,0.000000,,2013-02-18 04:01:00,
2013-02-17 20:11:00,35.0,21.0,-100.00,SSW,192,2.0,9.0,56,0.00,,,0.00,0.000000,,2013-02-18 04:11:00,
2013-02-17 20:21:00,35.0,21.0,-100.00,SSW,192,2.0,9.0,56,0.00,,,0.00,0.000000,,2013-02-18 04:21:00,
2013-02-17 20:32:00,35.0,21.0,-100.00,SSW,192,2.0,9.0,56,0.00,,,0.00,0.000000,,2013-02-18 04:32:00,
2013-02-17 21:01:00,30.0,21.0,-100.00,South,177,2.0,6.0,70,0.00,,,0.00,0.000000,,2013-02-18 05:01:00,
2013-02-17 21:11:00,30.0,21.0,-100.00,South,177,2.0,6.0,70,0.00,,,0.00,0.000000,,2013-02-18 05:11:00,
2013-02-17 21:21:00,30.0,21.0,-100.00,South,177,2.0,6.0,70,0.00,,,0.00,0.000000,,2013-02-18 05:21:00,
2013-02-17 21:31:00,30.0,21.0,-100.00,South,177,2.0,6.0,70,0.00,,,0.00,0.000000,,2013-02-18 05:31:00,
2013-02-17 22:02:00,27.0,21.0,-100.00,ESE,104,1.0,4.0,77,0.00,,,0.00,0.000000,,2013-02-18 06:02:00,
2013-02-17 22:11:00,27.0,21.0,-100.00,ESE,104,1.0,4.0,77,0.00,,,0.00,0.000000,,2013-02-18 06:11:00,
2013-02-17 22:21:00,27.0,21.0,-100.00,ESE,104,1.0,4.0,77,0.00,,,0.00,0.000000,,2013-02-18 06:21:00,
2013-02-17 22:31:00,27.0,21.0,-100.00,ESE,104,1.0,4.0,77,0.00,,,0.00,0.000000,,2013-02-18 06:31:00,
2013-02-17 23:01:00,25.0,20.0,-100.00,North,11,1.0,3.0,81,0.00,,,0.00,0.000000,,2013-02-18 07:01:00,
2013-02-17 23:11:00,25.0,20.0,-100.00,North,11,1.0,3.0,81,0.00,,,0.00,0.000000,,2013-02-18 07:11:00,
2013-02-17 23:21:00,25.0,20.0,-100.00,North,11,1.0,3.0,81,0.00,,,0.00,0.000000,,2013-02-18 07:21:00,
2013-02-17 23:31:00,25.0,20.0,-100.00,North,11,1.0,3.0,81,0.00,,,0.00,0.000000,,2013-02-18 07:31:00,